STARLINK-1536, 46070

Orbit data source: Space-Track

STARLINK-1536, 46070 is a payload satellite owned by SpaceX/Seattle (US) in LEO that was launched on Fri, 07 Aug 2020 UTC via an FALCON 9 launch vehicle from the Air Force Eastern Test Range (AFETR). Payload-class satellites include a variety of spacecraft equipped with specific instruments for various scientific and technological missions. These include communications satellites like Starlink; space stations such as the ISS; scientific satellites like the Hubble; Earth observation satellites from companies like Planet Labs, Umbra, and HawkEye 360; GPS; miniature CubeSats for education and research; and military/defense satellites.

Loading next visibility...
Identifier
46070, 2020-055AV
Orbit
LEO
Country
Flag of USUS
Related business
Manufacturer
SpaceX/Seattle
Mission
Operational Commercial Communications
Bus & Motor
STARLINK, Unknown motor
Mass
260 kg wet, ~248 kg dry
Launch date (UTC)
2020-08-07 (6 years ago)
Launch vehicle
FALCON 9
Launch site
Air Force Eastern Test Range (AFETR)
Object type
Payload
Rocket body
Debris
Shape & HBR
Box + 1 Pan, 10.1 m
Radar Cross Section
13.562 m², Large (>1 m²)

Expand to show TLE details & history
Last TLE update: 9 hours ago

TLE from 9 hours ago
0 STARLINK-1536
1 46070U 20055AV  26125.67267654  .00002859  00000-0  10384-3 0  9991
2 46070  53.1591 196.8253 0001239  89.3264 270.7879 15.31710275317962
Epoch: 2026-05-05T16:08Z
TLE epoch observation values (Epoch: 2026-05-05T16:08:39.253Z)
Latitude
-0.00003°
Longitude
91.11757°
Altitude
471.598 km
Speed
7.631 km/s
True Right ascension
13h 07m 18s
True Declination
0° 00' 00"
Sunlit
Object was in full shadow at epoch
Visualization orbit readout
Latitude
Unknown
Longitude
Unknown
Altitude
Unknown
Speed
Unknown
Apparent Right ascension
Unknown
Apparent Declination
Unknown
Sunlit
N/A
Visualization observer readout
Local Sidereal Time
09:05:22
Azimuth
Unknown
Elevation
Unknown
Doppler factor
Unknown
Orbital elements
Apogee altitude
471.815 km
Perigee altitude
470.118 km
Semi-major axis
6,849.103 km
Eccentricity
0.00012
Inclination
53.1591°
RAAN
196.8253°
Arg. of periapsis
89.3264°
True anomaly
270.7737°
Mean anomaly
270.7879°
Eccentric anomaly
270.7808°
Mean motion
3.82906 °/min
Orbital period
94.02 mins
BSTAR
0.00010384
Loading maneuver chart data...
Computing Atmospheric mass density...
Loading historical data...
Loading historical data...
Loading historical data...
Loading historical data...
Loading historical data...
Loading historical data...
Loading historical data...

Documentation

Showing up to 5 results
|